Voltar ao catálogo

SL-14 R/B

AtivoPO
NORAD 20306·ROCKET BODY·🇷🇺 Russia

Lançado Oct 24, 1989 de Plesetsk Cosmodrome

Loading…

Próximas Passagens (próximas 24 horas)

TLE

AtualizadoSource: Space-Track

Época: Sep 14, 2026, 09:24 UTC

1 20306U 89086B   26257.39187086 -.00000212  00000-0 -59042-3 0  9996
2 20306  82.5504 235.7895 0017423  49.5874 104.4587 13.16276468772133

Acompanhe SL-14 R/B em tempo real com AllMySat

Download on the App Store